カタログに戻る

STARLINK-32161

運用中通信VLEO
NORAD 60593·PAYLOAD·🇺🇸 United States

打ち上げ Aug 20, 2024 から Cape Canaveral Space Force Station

Loading…

次のパス (今後24時間)

TLE

最新Source: CelesTrak SupGP

元期: Sep 14, 2026, 21:08 UTC

1 60593C 24150L   26257.88104167 -.00066152  00000+0 -19544-2 0  2575
2 60593  53.1569 144.0510 0001285  91.2241  18.5106 15.34424196    15

AllMySatでSTARLINK-32161をリアルタイム追跡

Download on the App Store